Location: Taukkyan
(23.1052°N, 94.0030°E)
Time: 11:47:20
(UTC+00:00)

Cosmos 2219 Rocket - Pass Details

Date: 06 July 2020
Orbit: 827 x 848 km, 71.0° (Epoch: 14 August)

Event Time Altitude Azimuth Distance (km) Brightness Sun altitude
Exits shadow 15:07:31 30° 236° (SW) 1,440 3.4 -29.8°
Maximum altitude 15:09:50 47° 290° (WNW) 1,087 3.0 -30.1°
Drops below altitude 10° 15:15:10 10° 4° (N) 2,431 5.1 -31.0°
Sets 15:17:42 0° 10° (N) 3,369 5.8 -31.3°
